Time,TemperatureF,DewpointF,PressureIn,WindDirection,WindDirectionDegrees,WindSpeedMPH,WindSpeedGustMPH,Humidity,HourlyPrecipIn,Conditions,Clouds,dailyrainin,SoftwareType,DateUTC
2013-02-20 00:01:00,50.0,32.2,30.11,North,0,0.0,0.0,50,0.00,,,0.00,WUHU216HW,2013-02-20 06:01:00,
2013-02-20 00:06:00,50.0,31.7,30.11,North,0,0.0,0.0,49,0.00,,,0.00,WUHU216HW,2013-02-20 06:06:00,
2013-02-20 00:11:00,50.0,31.7,30.11,North,0,0.0,0.0,49,0.00,,,0.00,WUHU216HW,2013-02-20 06:11:00,
2013-02-20 00:16:00,50.2,31.9,30.11,North,0,0.0,0.0,49,0.00,,,0.00,WUHU216HW,2013-02-20 06:16:00,
2013-02-20 00:21:00,50.2,31.9,30.11,North,0,0.0,0.0,49,0.00,,,0.00,WUHU216HW,2013-02-20 06:21:00,
2013-02-20 00:26:00,50.0,31.7,30.11,North,0,0.0,0.0,49,0.00,,,0.00,WUHU216HW,2013-02-20 06:26:00,
2013-02-20 00:31:00,50.0,31.7,30.11,North,0,0.0,0.0,49,0.00,,,0.00,WUHU216HW,2013-02-20 06:31:00,
2013-02-20 00:36:00,50.2,31.9,30.11,North,0,0.0,0.0,49,0.00,,,0.00,WUHU216HW,2013-02-20 06:36:00,
2013-02-20 00:41:00,50.2,31.9,30.11,North,0,0.0,0.0,49,0.00,,,0.00,WUHU216HW,2013-02-20 06:41:00,
2013-02-20 00:46:00,50.0,31.2,30.11,North,0,0.0,0.0,48,0.00,,,0.00,WUHU216HW,2013-02-20 06:46:00,
2013-02-20 00:51:00,50.0,31.2,30.11,North,0,0.0,0.0,48,0.00,,,0.00,WUHU216HW,2013-02-20 06:51:00,
2013-02-20 00:56:00,50.0,31.7,30.12,North,0,0.0,0.0,49,0.00,,,0.00,WUHU216HW,2013-02-20 06:56:00,
2013-02-20 01:01:00,50.0,31.2,30.12,North,0,0.0,0.0,48,0.00,,,0.00,WUHU216HW,2013-02-20 07:01:00,
2013-02-20 01:06:00,50.0,31.7,30.12,North,0,0.0,0.0,49,0.00,,,0.00,WUHU216HW,2013-02-20 07:06:00,
2013-02-20 01:11:00,50.0,31.7,30.12,North,0,0.0,0.0,49,0.00,,,0.00,WUHU216HW,2013-02-20 07:11:00,
2013-02-20 01:16:00,50.0,31.7,30.12,North,0,0.0,0.0,49,0.00,,,0.00,WUHU216HW,2013-02-20 07:16:00,
2013-02-20 01:21:00,49.9,31.5,30.13,North,0,0.0,0.0,49,0.00,,,0.00,WUHU216HW,2013-02-20 07:21:00,
2013-02-20 01:26:00,49.9,32.0,30.13,North,0,0.0,0.0,50,0.00,,,0.00,WUHU216HW,2013-02-20 07:26:00,
2013-02-20 01:31:00,49.9,32.0,30.13,North,0,0.0,0.0,50,0.00,,,0.00,WUHU216HW,2013-02-20 07:31:00,
2013-02-20 01:36:00,49.7,31.9,30.12,North,0,0.0,0.0,50,0.00,,,0.00,WUHU216HW,2013-02-20 07:36:00,
2013-02-20 01:41:00,49.7,31.9,30.13,North,0,0.0,0.0,50,0.00,,,0.00,WUHU216HW,2013-02-20 07:41:00,
2013-02-20 01:46:00,49.7,32.8,30.12,North,0,0.0,0.0,52,0.00,,,0.00,WUHU216HW,2013-02-20 07:46:00,
2013-02-20 01:51:00,49.5,32.1,30.12,North,0,0.0,0.0,51,0.00,,,0.00,WUHU216HW,2013-02-20 07:51:00,
2013-02-20 01:56:00,49.5,32.1,30.12,North,0,0.0,0.0,51,0.00,,,0.00,WUHU216HW,2013-02-20 07:56:00,
2013-02-20 02:05:00,49.5,32.6,30.11,North,0,0.0,0.0,52,0.00,,,0.00,WUHU216HW,2013-02-20 08:05:00,
2013-02-20 02:10:00,49.5,32.1,30.11,North,0,0.0,0.0,51,0.00,,,0.00,WUHU216HW,2013-02-20 08:10:00,
2013-02-20 02:15:00,49.7,32.3,30.11,North,0,0.0,0.0,51,0.00,,,0.00,WUHU216HW,2013-02-20 08:15:00,
2013-02-20 02:20:00,49.7,31.9,30.11,North,0,0.0,0.0,50,0.00,,,0.00,WUHU216HW,2013-02-20 08:20:00,
2013-02-20 02:25:00,49.7,31.9,30.10,North,0,0.0,0.0,50,0.00,,,0.00,WUHU216HW,2013-02-20 08:25:00,
2013-02-20 02:30:00,49.7,32.3,30.09,North,0,0.0,0.0,51,0.00,,,0.00,WUHU216HW,2013-02-20 08:30:00,
2013-02-20 02:35:00,49.7,32.3,30.09,North,0,0.0,0.0,51,0.00,,,0.00,WUHU216HW,2013-02-20 08:35:00,
2013-02-20 02:40:00,49.5,31.7,30.11,North,0,0.0,0.0,50,0.00,,,0.00,WUHU216HW,2013-02-20 08:40:00,
2013-02-20 02:45:00,49.5,30.6,30.11,North,0,0.0,0.0,48,0.00,,,0.00,WUHU216HW,2013-02-20 08:45:00,
2013-02-20 02:50:00,49.7,31.3,30.10,North,0,0.0,0.0,49,0.00,,,0.00,WUHU216HW,2013-02-20 08:50:00,
2013-02-20 02:55:00,49.7,31.9,30.08,North,0,0.0,0.0,50,0.00,,,0.00,WUHU216HW,2013-02-20 08:55:00,
2013-02-20 03:00:00,49.5,31.7,30.07,North,0,0.0,0.0,50,0.00,,,0.00,WUHU216HW,2013-02-20 09:00:00,
2013-02-20 03:05:00,49.5,30.6,30.08,North,0,0.0,0.0,48,0.00,,,0.00,WUHU216HW,2013-02-20 09:05:00,
2013-02-20 03:10:00,49.7,31.3,30.08,North,0,0.0,0.0,49,0.00,,,0.00,WUHU216HW,2013-02-20 09:10:00,
2013-02-20 03:15:00,49.5,31.2,30.07,North,0,0.0,0.0,49,0.00,,,0.00,WUHU216HW,2013-02-20 09:15:00,
2013-02-20 03:20:00,49.7,30.8,30.06,North,0,0.0,0.0,48,0.00,,,0.00,WUHU216HW,2013-02-20 09:20:00,
2013-02-20 03:25:00,49.7,30.8,30.05,North,0,0.0,0.0,48,0.00,,,0.00,WUHU216HW,2013-02-20 09:25:00,
2013-02-20 03:30:00,49.7,30.3,30.06,North,0,0.0,0.0,47,0.00,,,0.00,WUHU216HW,2013-02-20 09:30:00,
2013-02-20 03:35:00,49.7,30.3,30.06,North,0,0.0,0.0,47,0.00,,,0.00,WUHU216HW,2013-02-20 09:35:00,
2013-02-20 03:40:00,49.7,30.8,30.05,North,0,0.0,0.0,48,0.00,,,0.00,WUHU216HW,2013-02-20 09:40:00,
2013-02-20 03:45:00,49.7,31.3,30.03,North,0,0.0,0.0,49,0.00,,,0.00,WUHU216HW,2013-02-20 09:45:00,
2013-02-20 03:50:00,49.5,31.7,30.06,North,0,0.0,0.0,50,0.00,,,0.00,WUHU216HW,2013-02-20 09:50:00,
2013-02-20 03:55:00,49.5,31.7,30.06,North,0,0.0,0.0,50,0.00,,,0.00,WUHU216HW,2013-02-20 09:55:00,
2013-02-20 04:00:00,49.3,31.5,30.05,North,0,0.0,0.0,50,0.00,,,0.00,WUHU216HW,2013-02-20 10:00:00,
2013-02-20 04:05:00,49.3,31.5,30.05,North,0,0.0,0.0,50,0.00,,,0.00,WUHU216HW,2013-02-20 10:05:00,
2013-02-20 04:10:00,49.3,31.5,30.06,North,0,0.0,0.0,50,0.00,,,0.00,WUHU216HW,2013-02-20 10:10:00,
2013-02-20 04:15:00,49.3,32.0,30.07,North,0,0.0,0.0,51,0.00,,,0.00,WUHU216HW,2013-02-20 10:15:00,
2013-02-20 04:20:00,49.3,31.5,30.06,North,0,0.0,0.0,50,0.00,,,0.00,WUHU216HW,2013-02-20 10:20:00,
2013-02-20 04:25:00,49.3,32.4,30.07,North,0,0.0,0.0,52,0.00,,,0.00,WUHU216HW,2013-02-20 10:25:00,
2013-02-20 04:30:00,49.0,32.9,30.08,North,0,0.0,0.0,54,0.00,,,0.00,WUHU216HW,2013-02-20 10:30:00,
2013-02-20 04:35:00,48.6,33.1,30.11,North,0,0.0,0.0,55,0.00,,,0.00,WUHU216HW,2013-02-20 10:35:00,
2013-02-20 04:40:00,48.6,32.7,30.11,North,0,0.0,0.0,54,0.00,,,0.00,WUHU216HW,2013-02-20 10:40:00,
2013-02-20 04:45:00,48.4,33.0,30.10,North,0,0.0,0.0,55,0.00,,,0.00,WUHU216HW,2013-02-20 10:45:00,
2013-02-20 04:50:00,48.2,33.2,30.10,North,0,0.0,0.0,56,0.00,,,0.00,WUHU216HW,2013-02-20 10:50:00,
2013-02-20 04:55:00,47.9,32.9,30.10,North,0,0.0,0.0,56,0.00,,,0.00,WUHU216HW,2013-02-20 10:55:00,
2013-02-20 05:00:00,47.9,34.3,30.10,North,0,0.0,0.0,59,0.00,,,0.00,WUHU216HW,2013-02-20 11:00:00,
2013-02-20 05:05:00,47.5,34.4,30.11,North,0,0.0,0.0,60,0.00,,,0.00,WUHU216HW,2013-02-20 11:05:00,
2013-02-20 05:10:00,47.2,33.6,30.10,North,0,0.0,0.0,59,0.00,,,0.00,WUHU216HW,2013-02-20 11:10:00,
2013-02-20 05:15:00,47.2,34.4,30.10,North,0,0.0,0.0,61,0.00,,,0.00,WUHU216HW,2013-02-20 11:15:00,
2013-02-20 05:20:00,47.0,33.8,30.10,North,0,0.0,0.0,60,0.00,,,0.00,WUHU216HW,2013-02-20 11:20:00,
2013-02-20 05:25:00,47.0,33.4,30.10,North,0,0.0,0.0,59,0.00,,,0.00,WUHU216HW,2013-02-20 11:25:00,
2013-02-20 05:30:00,47.0,34.2,30.09,North,0,0.0,0.0,61,0.00,,,0.00,WUHU216HW,2013-02-20 11:30:00,
2013-02-20 05:35:00,46.8,34.0,30.07,North,0,0.0,0.0,61,0.00,,,0.00,WUHU216HW,2013-02-20 11:35:00,
2013-02-20 05:40:00,46.6,34.3,30.06,North,0,0.0,0.0,62,0.00,,,0.00,WUHU216HW,2013-02-20 11:40:00,
2013-02-20 05:45:00,46.6,34.7,30.06,North,0,0.0,0.0,63,0.00,,,0.00,WUHU216HW,2013-02-20 11:45:00,
2013-02-20 05:50:00,46.4,34.1,30.05,North,0,0.0,0.0,62,0.00,,,0.00,WUHU216HW,2013-02-20 11:50:00,
2013-02-20 05:55:00,46.3,34.3,30.04,North,0,0.0,0.0,63,0.00,,,0.00,WUHU216HW,2013-02-20 11:55:00,
2013-02-20 06:00:00,46.1,34.1,30.04,North,0,0.0,0.0,63,0.00,,,0.00,WUHU216HW,2013-02-20 12:00:00,
2013-02-20 06:05:00,46.1,34.1,30.05,North,0,0.0,0.0,63,0.00,,,0.00,WUHU216HW,2013-02-20 12:05:00,
2013-02-20 06:10:00,46.1,34.1,30.06,North,0,0.0,0.0,63,0.00,,,0.00,WUHU216HW,2013-02-20 12:10:00,
2013-02-20 06:15:00,45.9,33.6,30.05,North,0,0.0,0.0,62,0.00,,,0.00,WUHU216HW,2013-02-20 12:15:00,
2013-02-20 06:20:00,45.9,34.0,30.05,North,0,0.0,0.0,63,0.00,,,0.00,WUHU216HW,2013-02-20 12:20:00,
2013-02-20 06:25:00,46.1,33.8,30.03,North,0,0.0,0.0,62,0.00,,,0.00,WUHU216HW,2013-02-20 12:25:00,
2013-02-20 06:30:00,45.9,33.6,30.05,North,0,0.0,0.0,62,0.00,,,0.00,WUHU216HW,2013-02-20 12:30:00,
2013-02-20 06:35:00,45.9,34.0,30.04,North,0,0.0,0.0,63,0.00,,,0.00,WUHU216HW,2013-02-20 12:35:00,
2013-02-20 06:40:00,45.9,34.0,30.03,North,0,0.0,0.0,63,0.00,,,0.00,WUHU216HW,2013-02-20 12:40:00,
2013-02-20 06:45:00,45.9,34.0,30.03,North,0,0.0,0.0,63,0.00,,,0.00,WUHU216HW,2013-02-20 12:45:00,
2013-02-20 06:50:00,45.9,34.0,30.03,North,0,0.0,0.0,63,0.00,,,0.00,WUHU216HW,2013-02-20 12:50:00,
2013-02-20 06:55:00,46.1,34.1,30.05,North,0,0.0,0.0,63,0.00,,,0.00,WUHU216HW,2013-02-20 12:55:00,
2013-02-20 07:00:00,46.1,34.1,30.08,North,0,0.0,0.0,63,0.00,,,0.00,WUHU216HW,2013-02-20 13:00:00,
2013-02-20 07:05:00,46.1,34.1,30.09,North,0,0.0,0.0,63,0.00,,,0.00,WUHU216HW,2013-02-20 13:05:00,
2013-02-20 07:10:00,46.1,34.1,30.07,North,0,0.0,0.0,63,0.00,,,0.00,WUHU216HW,2013-02-20 13:10:00,
2013-02-20 07:15:00,46.1,34.1,30.06,North,0,0.0,0.0,63,0.00,,,0.00,WUHU216HW,2013-02-20 13:15:00,
2013-02-20 07:20:00,45.9,34.4,30.05,North,0,0.0,0.0,64,0.00,,,0.00,WUHU216HW,2013-02-20 13:20:00,
2013-02-20 07:25:00,45.7,35.0,30.06,North,0,0.0,0.0,66,0.00,,,0.00,WUHU216HW,2013-02-20 13:25:00,
2013-02-20 07:30:00,45.7,35.0,30.06,North,0,0.0,0.0,66,0.00,,,0.00,WUHU216HW,2013-02-20 13:30:00,
2013-02-20 07:35:00,45.5,34.8,30.06,North,0,0.0,0.0,66,0.00,,,0.00,WUHU216HW,2013-02-20 13:35:00,
2013-02-20 07:40:00,45.5,35.2,30.06,North,0,0.0,0.0,67,0.00,,,0.00,WUHU216HW,2013-02-20 13:40:00,
2013-02-20 07:45:00,45.4,35.0,30.06,North,0,0.0,0.0,67,0.00,,,0.00,WUHU216HW,2013-02-20 13:45:00,
2013-02-20 07:50:00,45.4,35.0,30.06,North,0,0.0,0.0,67,0.00,,,0.00,WUHU216HW,2013-02-20 13:50:00,
2013-02-20 07:55:00,45.5,35.2,30.07,North,0,0.0,0.0,67,0.00,,,0.00,WUHU216HW,2013-02-20 13:55:00,
2013-02-20 08:00:00,45.4,35.0,30.08,North,0,0.0,0.0,67,0.00,,,0.00,WUHU216HW,2013-02-20 14:00:00,
2013-02-20 08:05:00,45.4,35.0,30.09,North,0,0.0,0.0,67,0.00,,,0.00,WUHU216HW,2013-02-20 14:05:00,
2013-02-20 08:10:00,45.4,35.0,30.10,North,0,0.0,0.0,67,0.00,,,0.00,WUHU216HW,2013-02-20 14:10:00,
2013-02-20 08:15:00,45.4,35.4,30.07,North,0,0.0,0.0,68,0.00,,,0.00,WUHU216HW,2013-02-20 14:15:00,
2013-02-20 08:20:00,45.2,36.4,30.08,North,0,0.0,0.0,71,0.00,,,0.00,WUHU216HW,2013-02-20 14:20:00,
2013-02-20 08:25:00,45.0,35.8,30.11,North,0,0.0,0.0,70,0.00,,,0.00,WUHU216HW,2013-02-20 14:25:00,
2013-02-20 08:30:00,44.8,35.6,30.12,North,0,0.0,0.0,70,0.00,,,0.00,WUHU216HW,2013-02-20 14:30:00,
2013-02-20 08:35:00,44.8,36.0,30.12,North,0,0.0,0.0,71,0.00,,,0.00,WUHU216HW,2013-02-20 14:35:00,
2013-02-20 08:40:00,44.6,36.8,30.09,North,0,0.0,0.0,74,0.01,,,0.00,WUHU216HW,2013-02-20 14:40:00,
2013-02-20 08:45:00,44.3,36.5,30.10,North,0,0.0,0.0,74,0.01,,,0.01,WUHU216HW,2013-02-20 14:45:00,
2013-02-20 08:50:00,44.3,36.5,30.12,North,0,0.0,0.0,74,0.02,,,0.02,WUHU216HW,2013-02-20 14:50:00,
2013-02-20 08:55:00,43.9,36.8,30.13,North,0,0.0,0.0,76,0.03,,,0.03,WUHU216HW,2013-02-20 14:55:00,
2013-02-20 09:00:00,43.9,37.2,30.13,North,0,0.0,0.0,77,0.03,,,0.03,WUHU216HW,2013-02-20 15:00:00,
2013-02-20 09:05:00,43.7,37.0,30.12,North,0,0.0,0.0,77,0.03,,,0.03,WUHU216HW,2013-02-20 15:05:00,
2013-02-20 09:10:00,43.7,37.6,30.11,North,0,0.0,0.0,79,0.03,,,0.03,WUHU216HW,2013-02-20 15:10:00,
2013-02-20 09:15:00,43.6,38.1,30.10,North,0,0.0,0.0,81,0.04,,,0.04,WUHU216HW,2013-02-20 15:15:00,
2013-02-20 09:20:00,43.6,37.4,30.09,North,0,0.0,0.0,79,0.04,,,0.04,WUHU216HW,2013-02-20 15:20:00,
2013-02-20 09:25:00,43.6,37.8,30.10,North,0,0.0,0.0,80,0.04,,,0.04,WUHU216HW,2013-02-20 15:25:00,
2013-02-20 09:30:00,43.7,38.0,30.10,North,0,0.0,0.0,80,0.04,,,0.04,WUHU216HW,2013-02-20 15:30:00,
2013-02-20 09:35:00,43.7,38.3,30.10,North,0,0.0,0.0,81,0.04,,,0.04,WUHU216HW,2013-02-20 15:35:00,
2013-02-20 09:40:00,43.9,38.4,30.08,North,0,0.0,0.0,81,0.03,,,0.04,WUHU216HW,2013-02-20 15:40:00,
2013-02-20 09:45:00,43.9,38.2,30.08,North,0,0.0,0.0,80,0.02,,,0.04,WUHU216HW,2013-02-20 15:45:00,
2013-02-20 09:50:00,43.9,38.2,30.08,North,0,0.0,0.0,80,0.02,,,0.04,WUHU216HW,2013-02-20 15:50:00,
2013-02-20 09:55:00,44.1,38.3,30.10,North,0,0.0,0.0,80,0.01,,,0.04,WUHU216HW,2013-02-20 15:55:00,
2013-02-20 10:00:00,44.1,38.0,30.13,North,0,0.0,0.0,79,0.01,,,0.04,WUHU216HW,2013-02-20 16:00:00,
2013-02-20 11:13:00,44.1,39.6,30.06,North,0,0.0,0.0,84,0.04,,,0.04,WUHU216HW,2013-02-20 17:13:00,
2013-02-20 11:18:00,44.3,39.2,30.06,North,0,0.0,0.0,82,0.04,,,0.08,WUHU216HW,2013-02-20 17:18:00,
2013-02-20 11:23:00,44.1,39.2,30.04,North,0,0.0,0.0,83,0.04,,,0.08,WUHU216HW,2013-02-20 17:23:00,
2013-02-20 11:28:00,44.1,39.0,30.04,North,0,0.0,0.0,82,0.03,,,0.08,WUHU216HW,2013-02-20 17:28:00,
2013-02-20 11:33:00,43.9,38.4,30.04,North,0,0.0,0.0,81,0.03,,,0.08,WUHU216HW,2013-02-20 17:33:00,
2013-02-20 11:38:00,43.9,38.8,30.04,North,0,0.0,0.0,82,0.03,,,0.08,WUHU216HW,2013-02-20 17:38:00,
2013-02-20 11:43:00,43.7,38.3,30.04,North,0,0.0,0.0,81,0.03,,,0.08,WUHU216HW,2013-02-20 17:43:00,
2013-02-20 11:48:00,43.7,38.6,30.03,North,0,0.0,0.0,82,0.02,,,0.08,WUHU216HW,2013-02-20 17:48:00,
2013-02-20 11:53:00,43.7,38.9,30.03,North,0,0.0,0.0,83,0.01,,,0.08,WUHU216HW,2013-02-20 17:53:00,
2013-02-20 11:58:00,43.7,38.9,30.03,North,0,0.0,0.0,83,0.01,,,0.08,WUHU216HW,2013-02-20 17:58:00,
2013-02-20 12:03:00,73.1,56.3,30.03,South,180,0.0,0.0,56,0.00,,,0.08,WUHU216HW,2013-02-20 18:03:00,
2013-02-20 12:08:00,65.5,40.6,30.03,NE,45,5.8,5.8,40,0.07,,,0.14,WUHU216HW,2013-02-20 18:08:00,
2013-02-20 12:13:00,69.6,54.4,30.02,North,0,9.8,9.8,58,0.07,,,0.14,WUHU216HW,2013-02-20 18:13:00,
2013-02-20 12:18:00,47.2,37.2,30.02,East,90,8.3,10.5,68,0.07,,,0.14,WUHU216HW,2013-02-20 18:18:00,
2013-02-20 12:23:00,45.4,37.2,30.01,ENE,68,9.8,12.1,73,0.07,,,0.14,WUHU216HW,2013-02-20 18:23:00,
2013-02-20 12:28:00,45.0,37.2,30.01,NE,45,6.5,12.1,74,0.07,,,0.14,WUHU216HW,2013-02-20 18:28:00,
2013-02-20 12:33:00,45.2,37.4,30.01,ENE,68,5.4,11.9,74,0.07,,,0.14,WUHU216HW,2013-02-20 18:33:00,
2013-02-20 12:38:00,44.8,37.4,30.00,ENE,68,7.2,9.4,75,0.07,,,0.14,WUHU216HW,2013-02-20 18:38:00,
2013-02-20 12:43:00,44.6,37.2,30.00,East,90,6.9,9.8,75,0.07,,,0.14,WUHU216HW,2013-02-20 18:43:00,
2013-02-20 12:48:00,44.3,36.8,30.00,ENE,68,8.5,10.5,75,0.07,,,0.14,WUHU216HW,2013-02-20 18:48:00,
2013-02-20 12:53:00,44.3,36.5,30.00,NNE,23,5.4,10.5,74,0.07,,,0.14,WUHU216HW,2013-02-20 18:53:00,
2013-02-20 12:58:00,44.1,36.6,30.00,ENE,68,8.3,10.1,75,0.07,,,0.14,WUHU216HW,2013-02-20 18:58:00,
2013-02-20 13:03:00,44.1,36.6,30.00,NE,45,4.7,10.1,75,0.00,,,0.14,WUHU216HW,2013-02-20 19:03:00,
2013-02-20 13:08:00,43.9,36.5,29.99,NE,45,7.6,13.6,75,0.00,,,0.14,WUHU216HW,2013-02-20 19:08:00,
2013-02-20 13:13:00,43.7,36.0,29.98,ESE,113,8.1,13.6,74,0.00,,,0.14,WUHU216HW,2013-02-20 19:13:00,
2013-02-20 13:18:00,43.7,36.0,29.99,SE,135,5.4,11.2,74,0.00,,,0.14,WUHU216HW,2013-02-20 19:18:00,
2013-02-20 13:23:00,43.7,36.0,29.98,ENE,68,7.6,8.1,74,0.00,,,0.14,WUHU216HW,2013-02-20 19:23:00,
2013-02-20 13:29:00,44.1,36.4,29.97,ENE,68,8.5,8.5,74,0.00,,,0.14,WUHU216HW,2013-02-20 19:29:00,
2013-02-20 13:34:00,44.1,36.0,29.97,NNE,23,9.2,10.5,73,0.00,,,0.14,WUHU216HW,2013-02-20 19:34:00,
2013-02-20 13:39:00,44.1,36.0,29.98,NE,45,6.9,10.5,73,0.00,,,0.14,WUHU216HW,2013-02-20 19:39:00,
2013-02-20 13:44:00,44.3,35.8,29.98,SE,135,4.7,9.8,72,0.00,,,0.14,WUHU216HW,2013-02-20 19:44:00,
2013-02-20 13:49:00,43.9,35.5,29.97,ENE,68,6.9,9.2,72,0.00,,,0.14,WUHU216HW,2013-02-20 19:49:00,
2013-02-20 13:54:00,43.9,35.8,29.97,ENE,68,6.5,9.2,73,0.00,,,0.14,WUHU216HW,2013-02-20 19:54:00,
2013-02-20 13:59:00,43.7,35.3,29.96,East,90,8.3,9.2,72,0.00,,,0.14,WUHU216HW,2013-02-20 19:59:00,
2013-02-20 14:04:00,43.7,35.6,29.96,ENE,68,9.2,9.8,73,0.00,,,0.14,WUHU216HW,2013-02-20 20:04:00,
2013-02-20 14:09:00,43.9,36.2,29.95,NNE,23,8.7,9.8,74,0.00,,,0.14,WUHU216HW,2013-02-20 20:09:00,
2013-02-20 14:14:00,43.9,35.5,29.95,NE,45,8.5,10.5,72,0.00,,,0.14,WUHU216HW,2013-02-20 20:14:00,
2013-02-20 14:19:00,43.9,35.5,29.95,NE,45,8.5,10.5,72,0.00,,,0.14,WUHU216HW,2013-02-20 20:19:00,
2013-02-20 14:24:00,44.1,35.6,29.95,ENE,68,7.4,9.4,72,0.00,,,0.14,WUHU216HW,2013-02-20 20:24:00,
2013-02-20 14:29:00,44.1,35.3,29.95,East,90,6.9,9.8,71,0.00,,,0.14,WUHU216HW,2013-02-20 20:29:00,
2013-02-20 14:34:00,44.3,35.5,29.94,NE,45,8.5,9.8,71,0.00,,,0.14,WUHU216HW,2013-02-20 20:34:00,
2013-02-20 14:39:00,44.1,35.3,29.95,ENE,68,8.5,10.5,71,0.00,,,0.14,WUHU216HW,2013-02-20 20:39:00,
2013-02-20 14:44:00,43.9,35.5,29.95,ENE,68,5.6,10.5,72,0.00,,,0.14,WUHU216HW,2013-02-20 20:44:00,
2013-02-20 14:49:00,44.1,35.3,29.96,ENE,68,9.2,9.2,71,0.00,,,0.14,WUHU216HW,2013-02-20 20:49:00,
2013-02-20 14:54:00,44.1,35.6,29.95,East,90,2.2,9.2,72,0.00,,,0.14,WUHU216HW,2013-02-20 20:54:00,
2013-02-20 14:59:00,44.1,35.6,29.95,North,0,7.4,7.6,72,0.00,,,0.14,WUHU216HW,2013-02-20 20:59:00,
2013-02-20 15:04:00,43.9,35.5,29.95,ESE,113,1.8,7.6,72,0.00,,,0.14,WUHU216HW,2013-02-20 21:04:00,
2013-02-20 15:09:00,44.1,35.6,29.95,ESE,113,3.6,7.2,72,0.00,,,0.14,WUHU216HW,2013-02-20 21:09:00,
2013-02-20 15:14:00,44.3,35.5,29.95,ENE,68,7.4,7.4,71,0.00,,,0.14,WUHU216HW,2013-02-20 21:14:00,
2013-02-20 15:19:00,44.3,35.8,29.95,ESE,113,2.5,7.4,72,0.00,,,0.14,WUHU216HW,2013-02-20 21:19:00,
2013-02-20 15:24:00,44.1,35.6,29.95,NE,45,5.6,6.9,72,0.00,,,0.14,WUHU216HW,2013-02-20 21:24:00,
2013-02-20 15:29:00,44.3,35.8,29.95,ENE,68,4.0,6.9,72,0.00,,,0.14,WUHU216HW,2013-02-20 21:29:00,
2013-02-20 15:34:00,44.3,35.8,29.95,North,0,5.4,6.9,72,0.00,,,0.14,WUHU216HW,2013-02-20 21:34:00,
2013-02-20 15:39:00,44.3,35.8,29.95,East,90,5.4,8.1,72,0.00,,,0.14,WUHU216HW,2013-02-20 21:39:00,
2013-02-20 15:44:00,44.3,35.8,29.93,NE,45,4.0,8.5,72,0.00,,,0.14,WUHU216HW,2013-02-20 21:44:00,
2013-02-20 15:49:00,44.3,36.2,29.93,SE,135,8.1,8.5,73,0.00,,,0.14,WUHU216HW,2013-02-20 21:49:00,
2013-02-20 15:54:00,44.3,36.5,29.93,SE,135,2.9,8.1,74,0.00,,,0.14,WUHU216HW,2013-02-20 21:54:00,
2013-02-20 15:59:00,44.3,36.5,29.93,ENE,68,4.5,7.6,74,0.00,,,0.14,WUHU216HW,2013-02-20 21:59:00,
2013-02-20 16:04:00,44.3,36.5,29.92,ENE,68,4.7,9.6,74,0.00,,,0.14,WUHU216HW,2013-02-20 22:04:00,
2013-02-20 16:09:00,44.3,36.5,29.92,NE,45,5.4,9.6,74,0.00,,,0.14,WUHU216HW,2013-02-20 22:09:00,
2013-02-20 16:14:00,44.3,36.5,29.92,ENE,68,4.3,9.2,74,0.00,,,0.14,WUHU216HW,2013-02-20 22:14:00,
2013-02-20 16:19:00,43.9,36.2,29.92,ENE,68,3.6,8.7,74,0.00,,,0.14,WUHU216HW,2013-02-20 22:19:00,
2013-02-20 16:24:00,44.1,36.4,29.92,North,0,5.4,8.7,74,0.00,,,0.14,WUHU216HW,2013-02-20 22:24:00,
2013-02-20 16:29:00,44.1,36.4,29.91,ENE,68,3.1,7.6,74,0.00,,,0.14,WUHU216HW,2013-02-20 22:29:00,
2013-02-20 16:34:00,43.9,36.5,29.92,ENE,68,7.6,7.6,75,0.00,,,0.14,WUHU216HW,2013-02-20 22:34:00,
2013-02-20 16:39:00,43.9,36.5,29.92,ESE,113,1.1,7.6,75,0.00,,,0.14,WUHU216HW,2013-02-20 22:39:00,
2013-02-20 16:44:00,43.7,36.6,29.92,NW,315,6.5,7.6,76,0.00,,,0.14,WUHU216HW,2013-02-20 22:44:00,
2013-02-20 16:49:00,43.7,36.6,29.92,North,0,10.5,10.5,76,0.00,,,0.14,WUHU216HW,2013-02-20 22:49:00,
2013-02-20 16:54:00,43.6,36.5,29.92,NNE,23,2.5,10.5,76,0.00,,,0.14,WUHU216HW,2013-02-20 22:54:00,
2013-02-20 16:59:00,43.6,36.8,29.92,ESE,113,6.7,8.5,77,0.00,,,0.14,WUHU216HW,2013-02-20 22:59:00,
2013-02-20 17:04:00,43.2,36.5,29.91,ENE,68,5.1,8.5,77,0.00,,,0.14,WUHU216HW,2013-02-20 23:04:00,
2013-02-20 17:09:00,42.8,36.5,29.91,NNE,23,6.9,8.9,78,0.00,,,0.14,WUHU216HW,2013-02-20 23:09:00,
2013-02-20 17:14:00,42.7,36.5,29.90,East,90,7.2,8.9,79,0.00,,,0.14,WUHU216HW,2013-02-20 23:14:00,
2013-02-20 17:19:00,42.5,36.7,29.90,ENE,68,5.6,7.2,80,0.00,,,0.14,WUHU216HW,2013-02-20 23:19:00,
2013-02-20 17:24:00,42.5,36.7,29.90,ENE,68,5.1,7.2,80,0.00,,,0.14,WUHU216HW,2013-02-20 23:24:00,
2013-02-20 17:29:00,42.1,36.4,29.90,ESE,113,4.7,7.6,80,0.00,,,0.14,WUHU216HW,2013-02-20 23:29:00,
2013-02-20 17:34:00,41.9,36.2,29.90,ESE,113,3.1,8.7,80,0.00,,,0.14,WUHU216HW,2013-02-20 23:34:00,
2013-02-20 17:39:00,41.8,36.0,29.90,NE,45,6.7,8.7,80,0.00,,,0.14,WUHU216HW,2013-02-20 23:39:00,
2013-02-20 17:44:00,41.4,35.6,29.90,NNE,23,4.3,8.7,80,0.00,,,0.14,WUHU216HW,2013-02-20 23:44:00,
2013-02-20 17:49:00,41.4,35.6,29.90,North,0,3.8,9.4,80,0.00,,,0.14,WUHU216HW,2013-02-20 23:49:00,
2013-02-20 17:54:00,41.4,35.6,29.89,ENE,68,6.0,9.4,80,0.00,,,0.14,WUHU216HW,2013-02-20 23:54:00,
2013-02-20 17:59:00,41.2,35.7,29.89,ENE,68,9.8,9.8,81,0.00,,,0.14,WUHU216HW,2013-02-20 23:59:00,
2013-02-20 18:04:00,40.9,35.7,29.88,ENE,68,6.0,9.8,82,0.00,,,0.14,WUHU216HW,2013-02-21 00:04:00,
2013-02-20 18:09:00,40.7,35.8,29.88,ENE,68,10.5,10.5,83,0.00,,,0.14,WUHU216HW,2013-02-21 00:09:00,
2013-02-20 18:14:00,40.7,35.6,29.88,ENE,68,3.4,10.5,82,0.00,,,0.14,WUHU216HW,2013-02-21 00:14:00,
2013-02-20 18:19:00,40.7,35.6,29.88,NE,45,7.6,8.5,82,0.00,,,0.14,WUHU216HW,2013-02-21 00:19:00,
2013-02-20 18:24:00,40.5,35.7,29.89,North,0,4.5,8.5,83,0.00,,,0.14,WUHU216HW,2013-02-21 00:24:00,
2013-02-20 18:29:00,40.5,35.4,29.89,East,90,5.1,5.6,82,0.00,,,0.14,WUHU216HW,2013-02-21 00:29:00,
2013-02-20 18:34:00,40.3,35.2,29.89,NE,45,8.5,11.0,82,0.00,,,0.14,WUHU216HW,2013-02-21 00:34:00,
2013-02-20 18:39:00,40.3,35.2,29.89,NNE,23,6.9,11.0,82,0.00,,,0.14,WUHU216HW,2013-02-21 00:39:00,
2013-02-20 18:44:00,40.3,35.2,29.89,ESE,113,3.8,6.9,82,0.00,,,0.14,WUHU216HW,2013-02-21 00:44:00,
2013-02-20 18:50:00,40.3,35.2,29.89,ENE,68,4.5,11.2,82,0.00,,,0.14,WUHU216HW,2013-02-21 00:50:00,
2013-02-20 18:55:00,40.3,35.2,29.88,ESE,113,6.3,11.2,82,0.00,,,0.14,WUHU216HW,2013-02-21 00:55:00,
2013-02-20 19:00:00,40.3,35.2,29.89,NNE,23,5.6,6.3,82,0.00,,,0.14,WUHU216HW,2013-02-21 01:00:00,
2013-02-20 19:05:00,40.3,35.6,29.89,ENE,68,4.5,6.3,83,0.00,,,0.14,WUHU216HW,2013-02-21 01:05:00,
2013-02-20 19:10:00,40.3,35.2,29.89,NE,45,6.5,10.1,82,0.00,,,0.14,WUHU216HW,2013-02-21 01:10:00,
2013-02-20 19:15:00,40.3,35.2,29.89,ENE,68,2.0,10.1,82,0.00,,,0.14,WUHU216HW,2013-02-21 01:15:00,
2013-02-20 19:20:00,40.3,34.9,29.89,NNE,23,6.7,9.8,81,0.00,,,0.14,WUHU216HW,2013-02-21 01:20:00,
2013-02-20 19:25:00,40.3,34.9,29.89,NNE,23,3.4,9.8,81,0.00,,,0.14,WUHU216HW,2013-02-21 01:25:00,
2013-02-20 19:30:00,40.3,34.9,29.89,ENE,68,7.8,7.8,81,0.00,,,0.14,WUHU216HW,2013-02-21 01:30:00,
2013-02-20 19:35:00,40.3,34.9,29.89,North,0,4.5,11.0,81,0.00,,,0.14,WUHU216HW,2013-02-21 01:35:00,
2013-02-20 19:40:00,40.3,34.9,29.90,North,0,5.4,7.2,81,0.00,,,0.14,WUHU216HW,2013-02-21 01:40:00,
2013-02-20 19:45:00,40.3,34.9,29.90,ENE,68,4.9,8.3,81,0.00,,,0.14,WUHU216HW,2013-02-21 01:45:00,
2013-02-20 19:50:00,40.3,34.9,29.89,NE,45,6.5,8.3,81,0.00,,,0.14,WUHU216HW,2013-02-21 01:50:00,
2013-02-20 19:55:00,40.3,34.9,29.89,ENE,68,4.0,7.8,81,0.00,,,0.14,WUHU216HW,2013-02-21 01:55:00,
2013-02-20 20:00:00,40.3,35.2,29.88,North,0,5.6,6.9,82,0.00,,,0.14,WUHU216HW,2013-02-21 02:00:00,
2013-02-20 20:05:00,40.3,34.9,29.88,ENE,68,2.9,7.6,81,0.00,,,0.14,WUHU216HW,2013-02-21 02:05:00,
2013-02-20 20:10:00,40.5,35.1,29.88,NE,45,3.6,9.4,81,0.00,,,0.14,WUHU216HW,2013-02-21 02:10:00,
2013-02-20 20:15:00,40.5,35.1,29.88,ENE,68,4.3,9.4,81,0.00,,,0.14,WUHU216HW,2013-02-21 02:15:00,
2013-02-20 20:20:00,40.3,34.9,29.88,NE,45,7.6,7.6,81,0.00,,,0.14,WUHU216HW,2013-02-21 02:20:00,
2013-02-20 20:25:00,40.3,34.9,29.88,ESE,113,3.4,7.6,81,0.00,,,0.14,WUHU216HW,2013-02-21 02:25:00,
2013-02-20 20:30:00,40.3,34.9,29.88,SE,135,5.4,7.2,81,0.00,,,0.14,WUHU216HW,2013-02-21 02:30:00,
2013-02-20 20:35:00,40.3,34.9,29.88,NE,45,5.4,5.4,81,0.00,,,0.14,WUHU216HW,2013-02-21 02:35:00,
2013-02-20 20:40:00,40.5,35.1,29.87,NNE,23,5.6,7.2,81,0.00,,,0.14,WUHU216HW,2013-02-21 02:40:00,
2013-02-20 20:45:00,40.5,35.1,29.87,ESE,113,5.4,7.2,81,0.00,,,0.14,WUHU216HW,2013-02-21 02:45:00,
2013-02-20 20:50:00,40.5,35.1,29.87,ENE,68,4.0,6.0,81,0.00,,,0.14,WUHU216HW,2013-02-21 02:50:00,
2013-02-20 20:55:00,40.5,35.1,29.87,North,0,2.2,5.8,81,0.00,,,0.14,WUHU216HW,2013-02-21 02:55:00,
2013-02-20 21:00:00,40.5,35.1,29.87,North,0,7.8,7.8,81,0.00,,,0.14,WUHU216HW,2013-02-21 03:00:00,
2013-02-20 21:05:00,40.5,35.1,29.86,East,90,1.8,8.9,81,0.00,,,0.14,WUHU216HW,2013-02-21 03:05:00,
2013-02-20 21:10:00,40.7,34.9,29.86,NE,45,6.7,8.9,80,0.00,,,0.14,WUHU216HW,2013-02-21 03:10:00,
2013-02-20 21:15:00,40.7,35.3,29.85,ENE,68,4.0,8.1,81,0.00,,,0.14,WUHU216HW,2013-02-21 03:15:00,
2013-02-20 21:20:00,40.7,34.9,29.85,NE,45,8.1,8.1,80,0.00,,,0.14,WUHU216HW,2013-02-21 03:20:00,
2013-02-20 21:25:00,40.7,34.9,29.85,NE,45,4.7,8.1,80,0.00,,,0.14,WUHU216HW,2013-02-21 03:25:00,
2013-02-20 21:30:00,40.7,34.7,29.85,NE,45,5.8,6.9,79,0.00,,,0.14,WUHU216HW,2013-02-21 03:30:00,
2013-02-20 21:35:00,40.7,34.9,29.85,NNE,23,2.5,6.9,80,0.00,,,0.14,WUHU216HW,2013-02-21 03:35:00,
2013-02-20 21:40:00,40.7,34.7,29.85,NNE,23,6.0,8.3,79,0.00,,,0.14,WUHU216HW,2013-02-21 03:40:00,
2013-02-20 21:45:00,40.7,34.7,29.85,East,90,4.0,8.3,79,0.00,,,0.14,WUHU216HW,2013-02-21 03:45:00,
2013-02-20 21:50:00,40.7,34.7,29.84,NNE,23,4.0,7.6,79,0.00,,,0.14,WUHU216HW,2013-02-21 03:50:00,
2013-02-20 21:55:00,40.7,34.7,29.84,North,0,2.7,7.4,79,0.00,,,0.14,WUHU216HW,2013-02-21 03:55:00,
2013-02-20 22:00:00,40.9,34.8,29.83,ENE,68,9.2,9.4,79,0.00,,,0.14,WUHU216HW,2013-02-21 04:00:00,
2013-02-20 22:05:00,40.9,34.8,29.83,ENE,68,4.7,9.4,79,0.00,,,0.14,WUHU216HW,2013-02-21 04:05:00,
2013-02-20 22:10:00,40.9,34.8,29.83,North,0,5.4,7.4,79,0.00,,,0.14,WUHU216HW,2013-02-21 04:10:00,
2013-02-20 22:15:00,40.9,34.5,29.83,NNE,23,2.2,8.5,78,0.00,,,0.14,WUHU216HW,2013-02-21 04:15:00,
2013-02-20 22:21:00,40.9,34.5,29.83,ENE,68,8.5,8.5,78,0.00,,,0.14,WUHU216HW,2013-02-21 04:21:00,
2013-02-20 22:26:00,41.0,34.3,29.82,ENE,68,6.9,10.1,77,0.00,,,0.14,WUHU216HW,2013-02-21 04:26:00,
2013-02-20 22:31:00,41.0,34.3,29.82,ENE,68,4.0,10.1,77,0.00,,,0.14,WUHU216HW,2013-02-21 04:31:00,
2013-02-20 22:36:00,41.2,34.5,29.81,ENE,68,7.8,7.8,77,0.00,,,0.14,WUHU216HW,2013-02-21 04:36:00,
2013-02-20 22:41:00,41.4,34.4,29.80,NE,45,4.7,10.5,76,0.00,,,0.14,WUHU216HW,2013-02-21 04:41:00,
2013-02-20 22:46:00,41.4,34.0,29.81,East,90,6.9,10.5,75,0.00,,,0.14,WUHU216HW,2013-02-21 04:46:00,
2013-02-20 22:51:00,41.4,34.0,29.80,ENE,68,7.8,10.1,75,0.00,,,0.14,WUHU216HW,2013-02-21 04:51:00,
2013-02-20 22:56:00,41.4,34.0,29.80,NNE,23,4.7,11.9,75,0.00,,,0.14,WUHU216HW,2013-02-21 04:56:00,
2013-02-20 23:00:00,41.6,33.8,29.80,NE,45,4.9,11.9,74,0.00,,,0.14,WUHU216HW,2013-02-21 05:00:00,
2013-02-20 23:05:00,41.6,33.8,29.80,NE,45,6.5,11.4,74,0.00,,,0.14,WUHU216HW,2013-02-21 05:05:00,
2013-02-20 23:10:00,41.8,34.0,29.80,North,0,5.1,6.5,74,0.00,,,0.14,WUHU216HW,2013-02-21 05:10:00,
2013-02-20 23:15:00,41.8,33.8,29.80,NNE,23,4.9,8.3,73,0.00,,,0.14,WUHU216HW,2013-02-21 05:15:00,
2013-02-20 23:20:00,41.9,34.2,29.78,ENE,68,3.6,8.5,74,0.00,,,0.14,WUHU216HW,2013-02-21 05:20:00,
2013-02-20 23:25:00,41.9,33.9,29.78,NE,45,5.4,8.5,73,0.00,,,0.14,WUHU216HW,2013-02-21 05:25:00,
2013-02-20 23:30:00,42.1,34.1,29.78,ESE,113,5.4,7.6,73,0.00,,,0.14,WUHU216HW,2013-02-21 05:30:00,
2013-02-20 23:35:00,42.1,34.1,29.78,ENE,68,7.8,10.3,73,0.00,,,0.14,WUHU216HW,2013-02-21 05:35:00,
2013-02-20 23:40:00,42.1,33.8,29.78,NE,45,6.3,10.3,72,0.00,,,0.14,WUHU216HW,2013-02-21 05:40:00,
2013-02-20 23:45:00,42.3,33.9,29.77,NE,45,4.0,11.9,72,0.00,,,0.14,WUHU216HW,2013-02-21 05:45:00,
2013-02-20 23:50:00,42.3,33.9,29.77,ENE,68,5.6,11.9,72,0.00,,,0.14,WUHU216HW,2013-02-21 05:50:00,
2013-02-20 23:56:00,42.3,33.9,29.77,ENE,68,9.2,9.2,72,0.00,,,0.14,WUHU216HW,2013-02-21 05:56:00,